Weather History for West Palm Beach, FL

Change the Weather History Date:

Wednesday, July 24, 2013

  Actual Average Record
Temperature  
Mean Temperature 86 °F 83 °F  
Max Temperature 94 °F 90 °F 97 °F (1912)
Min Temperature 78 °F 76 °F 67 °F (1940)
Degree Days  
Heating Degree Days 0 0  
Month to date heating degree days 0 0  
Since 1 June heating degree days 0 0  
Since 1 July heating degree days 0 0  
Cooling Degree Days 21 18  
Month to date cooling degree days 436 421  
Year to date cooling degree days 2110 2020  
Since 1 June cooling degree days 925 911  
Growing Degree Days 36 (Base 50)    
Moisture  
Dew Point 70 °F    
Average Humidity 63    
Maximum Humidity 85    
Minimum Humidity 41    
Precipitation  
Precipitation T in 0.17 in 2.00 in (1933)
Month to date precipitation 5.59 4.51  
Year to date precipitation 43.27 31.52  
Snow  
Snow 0.00 in - - ()
Month to date snowfall 0.0  
Since 1 June snowfall 0.0  
Since 1 July snowfall 0.0  
Snow Depth 0.00 in    
Sea Level Pressure  
Sea Level Pressure 29.96 in    
Wind  
Wind Speed 9 mph (WSW)    
Max Wind Speed 17 mph    
Max Gust Speed 22 mph    
Visibility 10 miles    
Events      
T = Trace of Precipitation, MM = Missing Value Source: NWS Daily Summary

Daily Weather History Graph

Daily Weather History Graph

Search for Another Location

Airport:

Trip Planner

Search our weather history database for the weather conditions in past years. The results will help you decide how hot, cold, wet, or windy it might be!

Date:

Astronomy

Jul. 24, 2013 Rise Set
Actual Time 6:41 AM EDT 8:12 PM EDT
Civil Twilight 6:15 AM EDT 8:37 PM EDT
Nautical Twilight 5:45 AM EDT 9:07 PM EDT
Astronomical Twilight 5:13 AM EDT 9:39 PM EDT
Moon 9:38 PM EDT (7/24) 8:41 AM EDT (7/24)
Length of Visible Light 14h 21m
Length of Day
13h 31m
Waning Gibbous, 95% of the Moon is Illuminated
Jul 24
Waning Gibbous
Jul 29
Last Quarter
Aug 6
New
Aug 14
First Quarter
Aug 20
Full

Hourly Weather History & Observations

Time (EDT) Temp. Heat Index Dew Point Humidity Pressure Visibility Wind Dir Wind Speed Gust Speed Precip Events Conditions
12:53 AM 82.9 °F 88.8 °F 73.0 °F 72% 30.00 in 10.0 mi SW 10.4 mph - N/A   Overcast
1:53 AM 82.0 °F 87.9 °F 73.9 °F 76% 29.99 in 10.0 mi SW 5.8 mph - 0.00 in   Overcast
2:53 AM 81.0 °F 85.2 °F 72.0 °F 74% 29.96 in 10.0 mi West 5.8 mph - N/A   Overcast
3:53 AM 80.1 °F 83.8 °F 72.0 °F 76% 29.95 in 10.0 mi WSW 3.5 mph - N/A   Overcast
4:53 AM 80.1 °F 83.8 °F 72.0 °F 76% 29.95 in 10.0 mi WSW 4.6 mph - N/A   Mostly Cloudy
5:53 AM 79.0 °F - 73.0 °F 82% 29.96 in 10.0 mi WSW 5.8 mph - N/A   Mostly Cloudy
6:53 AM 78.1 °F - 72.0 °F 81% 29.96 in 10.0 mi West 3.5 mph - N/A   Overcast
7:53 AM 80.1 °F 84.2 °F 73.0 °F 79% 29.97 in 10.0 mi West 3.5 mph - N/A   Mostly Cloudy
8:53 AM 82.9 °F 88.8 °F 73.0 °F 72% 29.99 in 10.0 mi West 6.9 mph - N/A   Mostly Cloudy
9:53 AM 84.9 °F 90.7 °F 72.0 °F 65% 29.99 in 10.0 mi WSW 9.2 mph - N/A   Mostly Cloudy
10:53 AM 87.1 °F 92.8 °F 71.1 °F 59% 29.99 in 10.0 mi West 10.4 mph 18.4 mph N/A   Mostly Cloudy
11:27 AM 89.6 °F 96.2 °F 71.6 °F 55% 29.99 in 10.0 mi WSW 12.7 mph 19.6 mph N/A   Mostly Cloudy
11:40 AM 87.8 °F 93.8 °F 71.6 °F 58% 29.99 in 10.0 mi WSW 12.7 mph 18.4 mph N/A   Mostly Cloudy
11:53 AM 89.1 °F 96.0 °F 72.0 °F 57% 29.99 in 10.0 mi SW 13.8 mph - N/A   Mostly Cloudy
12:53 PM 91.0 °F 97.6 °F 71.1 °F 52% 29.99 in 10.0 mi WSW 11.5 mph - N/A   Mostly Cloudy
1:53 PM 93.0 °F 99.0 °F 70.0 °F 47% 29.97 in 10.0 mi SW 13.8 mph 20.7 mph N/A   Mostly Cloudy
2:53 PM 93.0 °F 96.4 °F 66.9 °F 42% 29.94 in 10.0 mi WSW 15.0 mph 19.6 mph N/A   Mostly Cloudy
3:53 PM 91.9 °F 94.5 °F 66.0 °F 42% 29.93 in 10.0 mi West 12.7 mph 20.7 mph N/A   Scattered Clouds
4:53 PM 93.0 °F 97.4 °F 68.0 °F 44% 29.92 in 10.0 mi West 10.4 mph - N/A   Scattered Clouds
5:53 PM 91.9 °F 93.3 °F 64.0 °F 39% 29.91 in 10.0 mi West 11.5 mph - N/A   Mostly Cloudy
6:53 PM 90.0 °F 91.7 °F 64.9 °F 43% 29.91 in 10.0 mi West 9.2 mph - N/A   Mostly Cloudy
7:53 PM 89.1 °F 91.3 °F 66.0 °F 46% 29.93 in 10.0 mi WSW 8.1 mph - N/A   Mostly Cloudy
8:53 PM 86.0 °F 88.8 °F 66.9 °F 53% 29.94 in 10.0 mi West 8.1 mph - N/A   Mostly Cloudy
9:53 PM 84.9 °F 88.2 °F 68.0 °F 57% 29.95 in 10.0 mi West 6.9 mph - N/A   Scattered Clouds
10:53 PM 82.9 °F 85.8 °F 68.0 °F 60% 29.96 in 10.0 mi West 10.4 mph - N/A   Scattered Clouds
11:53 PM 82.0 °F 85.5 °F 69.1 °F 65% 29.95 in 10.0 mi West 8.1 mph - N/A   Scattered Clouds